Honolulu, HI

11:31 PM HST on May 22, 2018 (GMT -1000)
Honolulu International

Weather History for PHNL - August, 2013

Change the Weather History Date:

Monday, August 5, 2013

  Actual Average Record
Temperature  
Mean Temperature 80 °F 82 °F  
Max Temperature 87 °F 88 °F 92 °F (1986)
Min Temperature 73 °F 75 °F 70 °F (1972)
Degree Days  
Heating Degree Days 0 0  
Month to date heating degree days 0 0  
Since 1 June heating degree days 0 0  
Since 1 July heating degree days 0 0  
Cooling Degree Days 15 17  
Month to date cooling degree days 79 85  
Year to date cooling degree days 2431 2545  
Since 1 June cooling degree days 971 1043  
Growing Degree Days 30 (Base 50)    
Moisture  
Dew Point 66 °F    
Average Humidity 64    
Maximum Humidity 79    
Minimum Humidity 48    
Precipitation  
Precipitation 0.00 in 0.01 in 0.48 in (1959)
Month to date precipitation T 0.10  
Year to date precipitation 8.98 8.44  
Snow  
Snow 0.00 in - - ()
Month to date snowfall 0.0  
Since 1 June snowfall 0.0  
Since 1 July snowfall 0.0  
Snow Depth 0.00 in    
Sea Level Pressure  
Sea Level Pressure 30.00 in    
Wind  
Wind Speed 10 mph (ENE)    
Max Wind Speed 23 mph    
Max Gust Speed 29 mph    
Visibility 10 miles    
Events      
T = Trace of Precipitation, MM = Missing Value Source: NWS Daily Summary

Daily Weather History Graph

Daily Weather History Graph

Search for Another Location

Airport or City:

Astronomy

Aug. 05, 2013 Rise Set
Actual Time 6:06 AM HST 7:08 PM HST
Civil Twilight 5:43 AM HST 7:31 PM HST
Nautical Twilight 5:15 AM HST 7:59 PM HST
Astronomical Twilight 4:46 AM HST 8:27 PM HST
Moon 5:10 AM HST (8/5) 6:20 PM HST (8/5)
Length of Visible Light 13h 48m
Length of Day
13h 01m
Waning Crescent, 1% of the Moon is Illuminated
Aug 5
Waning Crescent
Aug 6
New
Aug 14
First Quarter
Aug 20
Full
Aug 27
Last Quarter

Hourly Weather History & Observations

Time (HST) Temp. Heat Index Dew Point Humidity Pressure Visibility Wind Dir Wind Speed Gust Speed Precip Events Conditions
12:53 AM 77.0 °F - 66.0 °F 69% 30.02 in 10.0 mi NE 9.2 mph - N/A   Partly Cloudy
1:53 AM 75.0 °F - 66.0 °F 73% 30.00 in 10.0 mi NNE 3.5 mph - N/A   Partly Cloudy
2:53 AM 75.0 °F - 66.0 °F 73% 29.99 in 10.0 mi North 3.5 mph - N/A   Partly Cloudy
3:53 AM 75.0 °F - 66.0 °F 73% 29.98 in 10.0 mi Calm Calm - N/A   Partly Cloudy
4:53 AM 73.0 °F - 64.9 °F 76% 29.99 in 10.0 mi Calm Calm - N/A   Partly Cloudy
5:53 AM 73.9 °F - 66.0 °F 76% 29.99 in 10.0 mi Calm Calm - N/A   Partly Cloudy
6:53 AM 75.9 °F - 66.9 °F 74% 30.01 in 10.0 mi ENE 5.8 mph - N/A   Scattered Clouds
7:53 AM 79.0 °F - 68.0 °F 69% 30.02 in 10.0 mi ENE 9.2 mph - N/A   Scattered Clouds
8:53 AM 81.0 °F 83.3 °F 66.9 °F 62% 30.03 in 10.0 mi ENE 11.5 mph - N/A   Scattered Clouds
9:53 AM 82.0 °F 84.5 °F 66.9 °F 60% 30.03 in 10.0 mi ENE 15.0 mph - N/A   Scattered Clouds
10:53 AM 84.0 °F 86.3 °F 66.0 °F 55% 30.02 in 10.0 mi East 20.7 mph - N/A   Scattered Clouds
11:53 AM 84.9 °F 87.1 °F 66.0 °F 53% 30.01 in 10.0 mi ENE 19.6 mph 28.8 mph N/A   Scattered Clouds
12:53 PM 86.0 °F 88.2 °F 66.0 °F 51% 29.99 in 10.0 mi ENE 16.1 mph 25.3 mph N/A   Scattered Clouds
1:53 PM 86.0 °F 87.6 °F 64.9 °F 49% 29.98 in 10.0 mi ENE 20.7 mph 28.8 mph N/A   Scattered Clouds
2:53 PM 86.0 °F 88.2 °F 66.0 °F 51% 29.96 in 10.0 mi ENE 19.6 mph 27.6 mph N/A   Scattered Clouds
3:53 PM 84.9 °F 86.6 °F 64.9 °F 51% 29.96 in 10.0 mi ENE 18.4 mph - N/A   Scattered Clouds
4:53 PM 84.9 °F 86.1 °F 64.0 °F 49% 29.96 in 10.0 mi ENE 21.9 mph 27.6 mph N/A   Scattered Clouds
5:53 PM 82.0 °F 83.8 °F 64.9 °F 56% 29.96 in 10.0 mi ENE 19.6 mph 26.5 mph N/A   Scattered Clouds
6:53 PM 81.0 °F 82.7 °F 64.9 °F 58% 29.98 in 10.0 mi ENE 16.1 mph 21.9 mph N/A   Scattered Clouds
7:53 PM 79.0 °F - 64.9 °F 62% 30.00 in 10.0 mi ENE 12.7 mph - N/A   Scattered Clouds
8:53 PM 79.0 °F - 66.0 °F 64% 30.01 in 10.0 mi NE 13.8 mph 18.4 mph N/A   Scattered Clouds
9:53 PM 79.0 °F - 66.0 °F 64% 30.03 in 10.0 mi ENE 10.4 mph - N/A   Scattered Clouds
10:53 PM 78.1 °F - 66.0 °F 66% 30.02 in 10.0 mi NE 9.2 mph - N/A   Scattered Clouds
11:53 PM 78.1 °F - 66.9 °F 68% 30.02 in 10.0 mi NE 11.5 mph - N/A   Scattered Clouds